Location: *
(44.1392°N, 4.8079°E)
Time: 07:35:02
(UTC+00:00)

ASTEX 1 - Pass Details

Date: 21 June 2021
Orbit: 720 x 743 km, 92.7° (Epoch: 01 August)

Event Time Altitude Azimuth Distance (km) Brightness Sun altitude
Exits shadow 02:31:05 - 174° (S) 2,528 5.8 -12.2°
Reaches altitude 10° 02:31:49 10° 174° (S) 2,234 5.5 -12.1°
Maximum altitude 02:36:46 87° 263° (W) 740 3.4 -11.5°
Drops below altitude 10° 02:41:44 10° 354° (N) 2,236 6.5 -11.0°
Sets 02:44:01 0° 354° (N) 3,159 7.4 -10.7°
